Volver al catálogo

STARLINK-6245

ActivoComunicacionesVLEO
NORAD 57079·PAYLOAD·🇺🇸 United States

Lanzado Jun 22, 2023 desde Vandenberg Space Force Base

Loading…

Próximos Pases (próximas 24 horas)

TLE

ActualizadoSource: CelesTrak SupGP

Época: Sep 14, 2026, 21:08 UTC

1 57079C 23088AH  26257.88104167 -.00029992  00000+0 -10866-2 0  2578
2 57079  43.0012 107.4344 0001897 269.1625 232.0551 15.27583941    13

Sigue STARLINK-6245 en tiempo real con AllMySat

Download on the App Store